sat.trackr.live / text

‹ back to catalog

O3B FM9

NORAD 40351 · 2014-083D

PAYLOAD ACTIVE UNKNOWN

§ Identity

Operator
Country
O3B
Launch date
2014-12-18
Launch site
FRGUI
Launch vehicle
Mass (kg)
RCS (m²)
16.38

Purposes: comms

External: N2YO · Heavens-Above · Gunter

§ Orbital elements

Epoch: 2026-05-25T00:55:35.523840Z

Period
287.93 min
Inclination
0.0577°
Eccentricity
0.0002707
Mean motion
5.00115978 rev/d
Perigee alt
8,062.0 km
Apogee alt
8,069.8 km
Semi-major
14,444.0 km
B*
0.0000e+0
RAAN
356.4474°
Arg perigee
64.9731°
Mean anomaly
298.6062°
Rev number
20,891

§ Raw data

O3B FM91 40351U 14083D   26145.03860560 -.00000024  00000+0  00000+0 0  99902 40351   0.0577 356.4474 0002707  64.9731 298.6062  5.00115978208912

JSON: /api/v1/satellites/40351 · /tle

For live sub-satellite position, see the globe view (requires WebGL).

§ Visibility from observer

Set your observer location to see the next 7 days of passes ≥ 10°. The values pass through the URL so the page stays shareable.

No JS? Fill the form by hand. The geolocation button needs JavaScript.